SCP
1 1 1 1 1 1 1 0 0 0 0 0 0 0 1 1 2 4 5 5 5 5 4 5 5 6 6 6 5 4 4 3 3 2 2 2 1 1 1 1 1 1 1 1 1 1 1 0 0
1 1 1 1 1 1 1 0 0 0 0 0 0 1 1 2 4 5 5 5 5 5 4 5 6 6 6 6 5 4 4 4 3 3 2 2 2 1 1 1 1 1 1 1 1 1 1 0 0
2 2 2 1 1 1 0 0 0 0 0 1 1 2 2 3 5 6 6 5 5 5 5 5 6 7 7 6 5 5 4 4 4 3 2 2 2 1 1 1 1 1 1 1 1 1 1 0 0
2 2 2 1 1 0 0 0 0 1 1 1 2 3 4 5 5 5 5 5 5 5 5 5 6 7 7 6 5 5 4 4 4 3 2 2 2 2 2 2 2 1 1 1 1 1 1 0 0
2 2 1 1 0 0 0 0 0 1 1 1 2 4 6 6 6 5 5 4 4 5 4 5 6 7 7 6 6 5 4 4 3 3 2 2 2 2 2 2 2 2 1 1 1 1 0 0 0
1 1 1 0 0 0 0 0 0 1 1 2 3 4 6 7 6 6 5 4 4 4 4 5 5 6 6 6 5 5 4 4 3 3 3 2 2 2 2 2 2 2 1 1 1 1 0 0 0
1 1 0 0 0 0 0 0 0 1 2 3 3 4 5 6 7 6 5 5 5 4 5 5 5 5 6 6 5 5 4 4 3 3 3 2 2 2 2 2 2 2 1 1 1 1 0 0 0
1 0 0 0 0 0 0 0 1 1 3 3 3 3 4 5 6 7 7 6 5 5 5 5 5 5 5 5 5 5 4 4 3 3 3 2 2 2 2 2 1 1 1 1 1 1 0 0 0
0 0 0 0 0 0 0 0 1 1 2 3 3 3 4 5 6 7 7 6 6 5 6 5 5 5 5 5 4 4 4 4 3 3 2 2 2 2 1 1 1 1 1 1 1 1 0 0 0
0 0 0 0 0 0 0 1 1 1 1 2 2 3 4 5 5 6 6 6 5 6 6 6 5 5 5 4 4 4 4 3 3 3 2 2 1 1 1 1 1 1 1 1 1 1 0 0 0
0 0 0 0 0 0 0 1 1 1 1 1 1 2 3 4 5 5 5 5 5 6 6 5 5 5 5 4 4 4 4 3 3 2 2 2 1 1 1 1 1 1 1 0 0 0 0 0 0
0 0 0 0 0 0 1 1 2 2 1 1 1 1 2 3 4 4 5 4 4 5 5 5 5 4 4 4 4 4 4 3 3 3 2 2 2 1 1 1 1 1 0 0 0 0 0 0 0
0 0 0 0 0 0 0 1 2 2 1 1 1 1 1 2 3 4 4 4 4 4 4 5 5 4 3 3 3 3 3 3 3 3 3 2 2 1 1 1 1 1 1 0 0 0 0 0 0
0 0 0 0 0 0 0 1 1 1 1 1 1 1 1 2 2 3 3 3 3 3 4 4 4 3 3 3 3 3 3 3 4 3 3 2 2 1 1 1 1 1 1 1 1 1 0 0 0
0 0 0 0 0 0 0 0 1 1 1 1 1 1 1 1 2 2 2 2 3 3 3 4 4 3 3 3 3 3 3 3 3 3 3 2 2 1 1 1 1 1 1 1 1 1 0 0 0
0 0 0 0 0 0 0 0 0 0 0 0 1 1 1 1 1 2 3 3 3 3 3 3 4 3 3 3 2 2 3 3 3 3 3 2 2 2 2 1 1 1 1 1 1 1 1 0 0
0 0 0 0 0 0 0 0 0 0 0 0 0 1 1 1 1 2 3 3 3 3 3 3 3 3 3 2 2 2 2 2 2 2 2 2 2 2 2 1 1 1 2 2 1 1 1 1 1
0 0 0 0 0 0 0 0 0 0 0 0 0 0 0 0 1 1 2 2 2 2 2 2 3 3 3 2 2 2 2 2 2 2 2 2 2 2 1 1 1 1 1 1 1 1 1 1 1
0 0 0 0 0 0 0 0 0 0 0 0 0 0 0 0 0 1 1 1 2 2 2 2 2 3 2 2 1 1 2 2 2 2 2 2 2 2 1 1 1 1 1 1 1 1 1 1 2
0 0 0 0 0 0 0 0 0 0 0 0 0 0 0 0 0 1 1 1 2 2 2 2 2 2 2 1 1 1 2 3 3 3 2 2 2 1 1 1 1 1 1 1 2 2 2 2 2
0 0 0 0 0 0 0 0 0 0 0 0 0 0 0 0 1 1 1 1 2 2 2 1 1 1 1 1 1 1 2 3 3 3 2 2 1 1 1 1 1 1 1 2 2 2 2 2 2
0 0 0 0 0 0 0 0 0 0 0 0 0 0 0 1 0 0 0 1 1 1 1 1 1 1 1 1 1 1 1 2 2 2 1 1 1 1 1 1 1 1 1 1 2 2 2 2 2
0 0 0 0 0 0 0 0 0 0 0 0 0 0 0 0 0 0 0 0 0 0 1 1 1 1 1 1 1 1 1 2 2 1 1 1 1 1 1 1 1 1 1 2 2 2 3 3 3
0 0 0 0 0 0 0 0 0 0 0 0 0 0 0 0 0 0 0 0 0 0 0 0 0 0 1 1 1 1 1 2 2 1 1 1 1 1 1 1 1 1 1 2 2 2 3 3 3
0 0 0 0 0 0 0 0 0 0 0 0 0 0 0 0 0 0 0 0 0 0 0 0 0 0 0 0 0 0 1 1 1 1 1 1 1 1 1 1 1 1 1 1 2 2 2 3 3
0 0 0 0 0 0 0 0 0 0 0 0 0 0 0 0 0 0 0 0 0 0 0 0 0 0 0 0 0 0 1 1 1 1 1 1 1 1 1 1 1 1 1 1 1 2 2 2 3
0 0 0 0 0 0 0 0 0 0 0 0 0 0 0 0 0 0 0 0 0 0 0 0 0 0 0 0 0 0 1 1 1 1 1 1 0 0 1 1 1 1 1 1 2 2 2 2 2
0 0 0 0 0 0 0 0 0 0 0 0 0 0 0 0 0 0 0 0 0 0 0 0 0 0 0 0 0 0 1 1 1 1 1 1 0 0 1 1 1 1 2 2 2 2 2 2 2
0 0 0 0 0 0 0 0 0 0 0 0 0 0 0 0 0 0 0 0 0 0 0 0 0 0 0 0 0 0 0 1 1 1 1 1 1 0 0 1 1 1 2 2 2 2 2 2 1
0 0 0 0 0 0 0 0 0 0 0 0 0 0 0 0 0 0 0 0 0 0 0 0 0 0 0 0 0 0 0 1 1 1 1 1 1 1 0 0 1 1 1 1 1 1 1 1 1
Wind_Speed
9 8 5 2 4 8 18 16 12 11 12 10 8 8 8 6 2 2 5 8 14 17 19 19 19 18 18 18 17 17 17 17 16 17 17 16 16 15 16 15 15 15 15 15 15 16 16 16 15
8 5 3 3 7 13 14 15 18 15 11 8 7 7 6 4 2 5 5 9 14 16 17 17 18 18 18 17 17 17 17 17 17 17 17 16 16 16 16 15 15 15 15 15 15 15 15 15 15
8 5 3 5 10 16 12 8 10 10 9 9 8 7 5 2 1 3 5 9 12 14 15 16 19 18 18 17 17 17 17 17 16 16 16 16 16 16 16 16 15 15 15 15 15 15 14 14 13
3 2 4 8 18 17 15 13 11 9 9 8 6 5 3 2 1 4 7 8 9 12 14 16 18 18 17 17 16 17 17 17 16 15 16 16 16 16 16 15 14 14 15 15 15 15 14 13 12
2 3 7 11 19 17 14 13 13 11 10 9 6 6 6 3 5 6 7 6 7 9 12 16 18 17 17 17 16 16 16 16 16 16 16 16 16 16 15 15 15 15 15 15 15 14 13 12 11
3 4 8 13 17 16 15 14 14 13 12 10 7 7 6 3 3 3 5 6 6 7 10 14 17 16 16 16 16 15 15 15 16 16 16 16 16 15 16 16 15 15 15 15 14 14 13 12 10
4 5 10 13 14 14 12 10 11 11 12 9 5 7 5 3 2 2 3 4 5 7 9 11 12 13 14 14 14 14 14 14 14 15 14 14 14 15 16 15 15 15 15 14 13 13 12 11 9
3 4 9 11 14 15 11 9 9 10 11 8 5 6 4 3 2 2 1 3 5 6 8 9 11 11 10 10 13 13 13 13 13 13 13 13 13 14 14 14 13 14 14 13 12 12 11 10 8
3 6 10 12 12 11 8 9 10 9 9 8 7 7 7 4 2 2 0 1 3 6 7 7 8 10 10 10 12 11 12 12 13 12 14 12 9 9 10 12 12 13 13 13 12 11 11 9 6
5 8 13 11 9 10 10 10 10 9 10 10 8 7 8 6 4 3 3 4 4 6 7 6 7 8 9 9 9 7 8 8 9 8 10 8 7 7 9 11 12 12 12 12 11 11 10 6 3
7 10 11 12 10 9 10 11 11 11 11 11 10 9 8 8 7 5 5 5 6 7 7 7 7 7 8 7 7 5 5 6 8 9 10 7 7 6 7 6 7 8 9 6 8 7 5 4 4
10 13 13 11 9 10 11 10 11 12 13 12 12 10 8 8 8 7 7 5 4 6 7 7 6 6 7 7 7 6 5 5 6 8 10 7 5 6 6 5 6 6 5 5 5 4 6 5 5
11 12 12 11 10 10 11 11 12 14 13 12 13 11 8 8 8 6 5 4 4 6 6 7 7 6 6 6 6 7 6 6 6 7 8 8 6 7 7 6 6 6 5 6 5 5 5 5 5
8 9 10 10 11 10 11 13 12 13 11 12 11 10 9 9 7 5 5 5 4 5 6 7 7 7 6 5 6 6 6 6 6 6 7 9 7 7 7 6 6 6 5 5 5 5 4 3 3
8 9 10 10 11 9 7 11 11 12 10 9 9 9 8 7 6 6 5 5 5 5 5 6 6 6 6 5 6 6 5 6 6 6 7 8 7 7 6 6 5 5 5 6 4 4 3 3 2
7 7 6 6 5 4 4 9 8 7 4 6 6 7 7 6 6 5 5 5 4 4 5 5 5 5 5 4 4 5 6 6 5 5 6 7 8 8 6 5 5 5 5 4 4 4 3 3 2
4 4 6 6 3 2 4 8 8 6 5 5 5 5 5 6 5 4 4 4 4 4 5 4 5 4 5 5 3 4 5 5 5 5 5 6 7 8 6 5 5 5 4 4 4 4 4 4 3
4 5 7 7 4 4 5 7 8 6 6 4 4 4 4 3 3 3 3 3 3 4 4 4 4 4 5 4 3 3 4 4 4 4 5 7 6 8 6 5 6 5 4 4 4 4 4 3 3
7 7 9 8 6 5 5 7 8 6 4 3 3 1 1 2 1 1 3 2 2 3 3 4 6 5 4 4 4 5 5 4 4 4 6 7 7 7 6 5 5 5 5 5 5 4 5 3 3
6 7 7 6 4 5 4 5 5 3 1 1 1 0 1 1 2 2 3 3 2 2 2 2 4 6 5 3 3 4 5 4 4 4 5 6 7 7 6 6 6 5 5 5 5 4 3 3 4
6 5 4 5 5 3 2 4 4 2 2 3 2 3 2 3 2 3 4 3 2 2 2 1 2 5 5 5 3 4 4 4 3 4 4 5 7 7 6 6 5 5 5 5 5 5 5 4 4
5 3 4 6 3 2 2 2 3 3 4 4 3 4 4 4 3 3 4 5 3 2 2 2 1 4 5 4 3 5 5 5 5 5 4 5 6 6 6 6 6 5 5 5 5 5 4 5 5
4 6 6 6 3 2 2 1 1 3 4 5 6 5 5 4 3 4 4 4 4 3 2 2 2 3 3 3 4 4 4 3 3 4 5 4 4 6 6 6 6 5 5 5 6 6 5 4 5
5 5 5 4 1 1 1 1 2 3 5 6 7 6 6 5 4 5 4 4 4 3 3 3 3 3 3 3 3 3 5 5 4 5 5 4 3 4 5 5 5 5 4 5 5 5 6 5 5
4 3 2 1 0 1 2 3 3 5 6 6 6 6 6 5 5 5 5 5 4 4 4 4 4 3 3 3 3 2 2 4 4 4 5 4 4 3 5 4 5 5 4 5 5 5 5 6 6
3 2 2 2 1 1 3 3 3 6 7 7 7 7 7 7 7 7 7 6 5 5 5 4 4 3 3 3 3 2 1 2 2 2 3 3 3 3 4 4 4 4 4 4 4 4 4 4 5
3 2 2 1 1 1 1 2 3 7 8 8 8 9 8 8 8 8 8 7 6 6 5 5 4 3 3 3 3 2 2 2 2 2 2 2 2 2 3 4 4 4 4 4 4 3 4 4 4
2 3 3 2 1 1 1 2 2 4 5 7 8 8 8 8 9 9 8 8 7 6 6 6 5 4 4 3 3 2 2 1 1 2 2 2 2 2 3 3 4 4 4 4 4 3 4 4 4
2 2 3 2 1 1 1 3 4 3 4 5 7 7 7 8 8 8 7 7 7 7 7 7 6 5 5 4 3 3 2 2 1 1 1 1 2 2 3 3 3 3 4 4 4 4 5 5 5
2 2 2 2 3 1 2 2 5 5 5 6 7 7 7 8 7 7 7 7 8 8 8 7 6 6 5 5 4 3 2 2 2 1 1 0 1 1 2 3 3 3 4 4 5 5 5 6 6
Wind_Direction
288 266 258 239 223 230 238 237 248 247 247 251 259 258 248 252 265 127 134 128 123 136 146 154 155 156 157 156 155 153 153 154 153 152 150 148 146 143 141 137 134 131 126 123 119 114 110 107 104
288 263 240 228 223 227 240 234 243 252 267 280 280 275 267 265 58 101 116 120 128 136 145 156 154 156 157 157 157 156 156 157 156 155 153 151 149 146 144 141 137 132 128 124 120 114 111 110 108
272 260 231 226 226 229 238 236 238 252 267 276 277 276 270 267 78 94 101 117 126 137 147 152 154 157 157 157 158 157 158 159 158 157 155 154 152 149 147 143 138 132 127 123 121 116 114 112 111
256 215 241 241 236 235 249 269 287 281 281 279 285 289 290 301 53 92 102 113 127 139 145 150 155 158 158 158 158 159 158 160 159 157 155 154 153 150 147 141 136 131 128 126 123 120 117 115 116
247 230 228 240 246 248 256 268 279 279 269 274 281 279 283 330 60 88 103 112 125 137 143 151 156 159 160 160 159 160 160 160 159 159 159 157 154 151 145 139 136 134 132 130 127 124 122 120 121
224 227 233 240 248 248 249 257 267 269 270 273 281 276 270 323 47 89 99 112 122 131 139 152 158 159 160 162 161 161 162 161 160 161 160 158 154 149 145 142 140 139 137 135 131 128 127 126 125
244 244 245 254 262 260 258 262 262 266 264 265 279 273 264 283 3 67 96 110 117 126 135 152 158 159 160 161 161 161 162 162 161 161 158 154 150 148 147 144 143 143 141 138 135 132 131 129 130
250 266 253 251 259 265 274 281 281 277 270 276 263 247 245 255 344 351 76 116 126 133 136 155 161 162 164 163 161 159 159 159 159 157 151 148 147 148 147 145 145 144 142 140 138 137 135 132 135
256 245 247 248 257 273 289 300 306 303 282 277 265 251 258 252 292 304 283 171 143 149 143 151 165 166 165 165 163 157 155 155 153 150 147 147 150 150 150 147 145 144 144 143 142 141 138 135 142
210 241 246 257 272 286 296 301 305 293 282 277 273 262 247 232 223 222 218 200 187 170 158 159 164 167 165 165 159 163 163 162 161 158 158 160 157 157 151 145 144 143 143 144 147 147 146 147 160
219 246 259 267 275 285 289 287 287 279 271 269 270 260 236 221 214 214 222 205 197 179 167 169 166 168 164 158 160 166 166 169 169 167 169 163 154 148 141 142 142 142 146 149 150 154 174 184 177
243 256 265 269 270 277 277 278 278 270 267 274 278 268 260 235 215 210 223 208 204 189 177 174 172 173 169 166 165 162 167 170 169 170 169 161 153 150 150 155 157 160 166 159 164 182 195 190 179
254 265 269 270 267 271 273 267 269 270 270 271 273 260 249 250 237 216 217 200 211 196 187 182 179 181 176 171 167 164 171 167 167 166 167 162 157 158 158 163 164 169 166 164 177 195 191 182 184
267 277 280 281 277 271 268 268 264 265 269 263 256 256 248 243 236 230 230 207 206 206 191 192 186 185 174 172 170 166 167 163 160 162 167 166 163 159 160 163 163 169 165 168 179 191 179 180 179
274 280 279 266 260 260 267 269 259 262 258 259 250 255 255 248 229 224 228 206 194 199 183 191 186 184 173 175 177 167 161 160 158 162 168 168 163 158 158 159 162 166 163 167 176 181 165 174 168
263 263 267 264 258 267 244 264 269 269 262 267 255 251 251 251 228 211 215 198 183 188 172 187 179 184 173 165 176 166 161 157 160 159 164 167 163 158 155 157 165 166 162 165 169 169 165 170 167
238 257 273 288 257 251 239 268 285 282 279 275 260 247 250 246 222 201 196 183 178 181 163 171 167 183 182 163 171 160 153 152 160 158 163 166 161 156 154 160 166 165 163 166 173 170 167 172 179
279 287 291 291 284 287 275 277 285 278 270 265 254 239 228 240 228 198 183 169 175 171 160 160 163 178 175 162 155 156 145 150 159 157 163 162 161 159 156 160 169 167 164 171 171 170 173 175 174
284 281 284 291 291 289 277 281 288 284 269 266 276 226 211 242 234 123 127 124 130 150 157 159 165 177 169 163 163 166 161 155 158 162 164 164 164 163 162 164 171 171 173 177 174 172 179 184 165
276 279 284 299 303 293 282 296 299 305 292 260 272 156 64 82 54 62 87 100 113 137 138 173 167 165 164 167 173 168 156 155 159 160 169 170 168 168 170 169 174 173 174 176 180 173 175 186 170
290 277 289 298 309 266 289 315 341 24 48 48 45 59 60 99 94 98 98 100 103 112 121 156 177 173 159 160 161 156 144 138 157 165 166 172 168 169 170 171 170 173 175 182 185 180 181 187 192
298 312 303 300 317 306 301 324 342 19 45 50 63 69 61 58 78 95 97 97 97 92 100 107 171 169 155 147 157 165 158 164 175 170 162 168 168 169 172 172 173 177 179 184 192 189 189 185 198
295 310 292 279 279 290 269 226 337 32 32 35 49 66 62 57 81 91 84 88 84 74 82 108 132 137 128 140 163 171 162 158 160 154 157 165 167 169 173 176 176 183 187 190 194 192 195 196 201
294 296 289 268 252 295 292 127 31 18 16 29 40 43 42 40 57 71 71 79 76 65 60 76 109 111 111 134 150 168 171 156 162 157 164 165 163 166 173 176 180 187 190 195 199 197 197 203 208
329 336 343 1 54 357 14 61 47 24 26 35 41 41 36 34 44 49 50 53 57 55 51 68 82 87 91 112 125 149 167 152 161 165 167 168 171 176 184 182 186 191 193 194 194 197 202 203 204
309 322 345 340 10 16 20 47 51 34 34 43 49 47 42 36 39 39 39 40 43 49 49 61 66 76 80 86 83 92 89 113 131 140 149 168 182 180 186 187 187 189 190 195 195 199 206 205 204
323 332 303 281 289 77 90 93 73 32 37 41 44 43 38 35 36 36 37 36 42 48 44 47 51 65 73 86 92 76 79 95 122 131 130 154 177 178 180 186 188 184 186 195 192 200 203 200 207
301 308 314 328 14 39 93 69 26 26 32 38 41 41 36 35 35 37 36 38 42 43 42 44 47 56 58 58 68 70 74 81 110 135 155 170 186 184 184 184 182 182 185 191 190 196 199 197 209
345 325 314 305 332 49 72 47 34 64 55 48 45 45 40 38 35 34 35 36 38 38 37 37 38 42 42 41 38 41 51 62 67 117 175 186 196 199 195 194 191 190 191 195 196 205 202 205 214
320 334 329 350 336 357 95 60 39 66 62 57 51 45 43 41 36 34 37 37 36 32 30 29 32 35 31 29 25 27 30 52 58 40 49 151 214 212 206 205 200 205 207 204 205 213 211 209 214